Wind_Speed
2 3 3 3 3 3 3 3 3 2 2 3 3 3 3 3 3 3 3 3 3 3 3 3 4 4 4 4 4 4 4 4 4 4 4 4 4 5 5 5 5 5 5 6 6 7 7 8 9
3 3 3 2 3 3 3 3 3 3 2 3 3 3 3 3 4 4 3 3 3 3 3 4 4 5 5 4 5 4 4 4 4 5 5 5 6 6 6 6 6 6 6 6 8 9 10 9 10
4 3 3 3 3 3 3 3 3 3 3 3 3 4 3 3 4 4 4 4 4 4 4 4 4 5 5 5 5 5 5 5 5 5 6 6 7 6 6 6 6 6 7 7 8 8 9 10 10
4 4 4 4 4 4 4 4 3 3 3 3 4 4 4 3 4 4 5 5 5 5 5 4 5 5 5 5 5 5 5 5 6 6 6 7 7 6 6 6 6 6 7 7 7 6 6 8 9
5 4 4 4 4 4 4 4 3 3 3 4 4 4 4 4 4 5 5 6 6 6 5 5 5 5 5 5 5 5 6 6 6 6 6 7 7 6 6 6 6 6 7 7 7 5 5 6 7
4 4 4 4 4 5 5 4 4 4 4 5 5 4 5 5 5 6 6 6 6 6 6 5 5 5 5 5 6 6 6 6 6 6 6 6 7 7 7 6 6 7 7 6 6 5 5 6 8
4 4 5 5 5 5 5 5 5 5 5 5 5 5 5 5 6 6 6 6 6 6 5 5 5 6 6 6 6 6 6 6 6 6 6 7 7 7 8 8 8 8 8 7 7 6 6 7 8
5 5 5 5 5 5 5 5 5 5 5 5 5 5 5 6 6 6 6 6 5 5 5 6 6 6 6 6 6 6 7 6 7 7 7 7 8 8 8 8 8 8 8 8 8 7 7 8 8
5 5 5 5 5 5 5 5 5 5 5 5 5 5 5 6 6 6 6 6 6 6 6 6 6 6 6 6 7 7 7 7 7 7 8 8 8 8 8 8 7 8 8 8 7 7 7 8 8
5 5 5 5 5 5 5 5 5 4 5 5 5 5 5 5 6 6 6 6 7 7 7 7 6 6 7 7 7 7 7 7 7 7 7 8 8 8 7 8 7 8 8 8 8 8 7 8 8
5 5 5 5 5 5 4 5 5 5 5 5 5 5 5 5 6 6 6 7 7 7 7 7 7 7 7 7 7 7 7 7 7 7 7 7 8 8 8 8 8 8 8 9 9 8 8 8 8
5 5 5 5 5 5 5 5 5 4 4 4 5 5 4 5 5 5 5 6 7 7 6 6 6 6 7 7 7 7 7 8 8 8 8 8 8 8 9 9 9 9 9 9 9 9 8 8 8
5 5 5 5 5 5 4 4 4 4 4 5 5 5 4 5 5 5 5 5 6 6 6 6 6 6 6 7 7 7 7 8 8 8 8 7 7 7 7 8 8 8 9 9 9 9 8 9 9
6 6 5 5 5 4 4 4 4 4 5 5 5 5 4 4 5 5 5 5 5 6 6 5 6 6 6 6 7 7 8 7 7 7 7 7 6 6 6 7 7 8 8 9 9 9 9 9 9
6 5 5 5 5 5 5 4 5 5 6 6 5 5 5 4 5 5 5 5 5 5 6 6 6 6 6 6 7 7 7 6 7 6 6 6 6 6 6 6 7 7 7 8 8 8 8 8 8
7 6 6 6 6 5 5 5 5 6 6 6 6 6 5 5 5 5 5 5 5 6 6 6 6 7 7 7 7 7 6 6 6 6 6 6 6 6 6 6 6 7 7 7 7 7 7 7 7
8 7 7 7 7 7 7 6 6 7 7 7 6 6 6 6 5 5 5 5 5 6 6 7 7 7 7 7 6 6 6 6 6 6 6 6 7 6 6 6 6 6 7 7 7 7 7 7 8
8 8 8 8 8 8 8 7 7 8 8 8 7 7 6 6 6 6 6 6 6 6 6 7 7 7 7 7 7 6 7 7 6 6 6 6 6 6 7 7 7 7 7 7 7 7 7 7 8
9 9 9 9 9 9 9 8 8 8 8 9 9 8 8 7 7 7 7 7 7 7 7 7 7 7 7 7 8 7 7 7 6 6 7 7 7 7 7 7 7 7 7 8 8 8 7 7 7
10 10 10 10 10 10 10 10 9 9 9 10 10 9 9 8 8 8 8 8 8 8 7 7 7 7 7 7 7 7 7 7 7 7 7 7 7 7 7 7 6 7 7 7 7 7 6 7 7
11 11 11 11 11 11 11 11 11 11 11 11 11 11 10 10 9 9 9 9 8 8 8 8 7 7 7 7 7 7 7 7 7 7 7 6 6 6 6 6 7 7 6 5 5 6 6 6 6
11 11 12 12 12 12 12 12 12 11 12 12 12 12 11 11 10 10 10 10 10 9 9 9 8 8 8 8 8 8 8 8 7 7 6 6 5 5 6 6 7 6 6 5 5 5 6 6 6
12 13 13 13 14 14 13 14 13 13 13 13 12 12 12 12 11 11 11 11 10 10 9 9 9 9 8 8 9 9 8 8 8 7 6 6 5 6 6 6 6 6 6 6 6 6 6 7 7
13 13 13 14 14 14 14 15 14 14 14 14 14 13 13 13 12 12 13 12 12 12 11 10 10 10 10 10 10 9 9 9 9 8 8 7 7 7 7 7 7 7 8 8 7 7 7 7 8
14 14 14 15 15 15 14 15 14 14 15 15 15 14 14 15 14 14 14 14 14 13 13 11 11 11 11 11 11 11 11 10 10 9 9 8 8 8 9 8 8 9 9 8 8 8 8 8 8
14 14 15 16 16 15 16 16 15 15 16 16 16 16 16 16 17 16 15 15 14 14 14 13 12 12 12 12 12 12 12 11 11 10 10 10 10 10 10 10 10 10 10 10 10 10 10 9 9
16 16 16 17 17 17 16 16 16 16 16 17 17 17 18 17 17 17 16 15 15 15 15 15 14 14 14 14 14 14 13 13 12 12 11 12 12 12 12 12 11 11 11 11 11 11 11 11 10
17 17 17 19 19 19 18 17 17 16 17 18 19 19 18 18 18 18 18 18 17 16 16 16 16 15 15 14 15 15 15 15 14 14 13 13 13 13 13 13 13 13 13 13 13 12 12 12 11
18 19 19 20 21 21 19 17 17 17 18 19 19 20 20 19 19 18 18 19 18 17 17 17 17 16 16 16 16 17 17 17 16 16 15 15 15 14 14 14 14 14 14 14 14 14 14 13 13
19 20 20 21 21 21 21 18 18 18 18 19 20 20 20 21 20 20 20 20 20 19 18 18 18 18 17 17 18 18 19 18 18 17 17 17 17 16 16 16 15 15 15 15 15 15 14 14 14
Wind_Direction
288 282 280 280 290 286 289 291 293 303 297 302 310 314 315 320 331 336 339 335 335 334 321 309 307 306 306 317 326 326 322 315 307 296 295 294 291 294 302 304 306 301 287 272 261 257 252 246 244
282 276 273 283 294 296 293 295 298 303 299 291 300 303 301 308 321 330 333 337 336 332 318 306 302 305 308 310 312 309 306 303 301 293 294 294 292 295 299 299 298 297 285 277 270 266 257 250 243
275 269 271 280 283 292 292 296 303 295 294 292 296 299 301 310 321 326 329 331 329 324 318 312 312 312 311 310 309 304 300 298 295 290 289 291 292 291 293 293 292 288 281 274 272 269 259 245 239
272 270 269 272 278 285 291 293 292 293 291 292 295 298 302 305 311 316 317 318 316 312 311 312 315 316 316 312 307 305 300 298 295 287 287 290 291 290 288 285 285 283 281 283 284 280 264 239 235
274 274 272 273 278 284 287 285 291 298 293 295 293 295 298 301 302 305 308 308 304 303 304 307 309 309 313 311 310 308 306 302 297 291 290 290 287 286 284 283 285 286 284 283 282 274 254 236 234
280 278 273 273 275 277 280 282 289 292 296 293 291 289 293 297 299 301 302 301 298 297 299 304 308 307 309 309 309 308 307 302 293 289 288 289 287 283 284 282 283 281 282 279 278 272 259 240 237
280 281 278 277 274 268 271 277 282 287 292 294 292 291 292 293 297 298 299 296 299 299 300 300 302 304 305 306 305 303 302 298 291 286 285 285 284 283 283 281 280 280 278 275 271 273 264 252 247
285 281 280 281 278 273 274 278 282 293 296 295 291 290 290 295 298 300 301 298 299 304 304 300 298 299 300 301 301 301 299 294 291 286 284 283 282 283 283 279 277 276 274 269 267 268 266 260 254
288 283 284 285 285 282 284 286 290 292 297 298 299 299 298 296 299 300 300 301 300 303 303 301 300 300 299 299 297 298 298 296 292 288 285 282 282 281 282 276 273 269 267 266 265 264 263 258 257
290 291 289 289 288 285 286 292 296 295 302 301 302 304 301 300 299 302 305 305 303 300 299 300 300 299 301 300 298 297 295 294 294 291 288 284 282 277 273 268 264 265 263 263 263 264 259 258 262
297 293 292 292 291 290 290 297 296 293 297 300 305 311 310 307 302 302 303 306 305 306 304 301 299 302 300 302 300 296 294 294 295 293 288 283 280 272 267 269 268 269 269 266 264 267 264 261 262
295 293 297 301 299 294 292 293 297 299 302 306 313 314 312 315 313 310 311 314 312 311 311 309 307 303 302 300 298 296 294 293 292 291 291 284 280 274 270 270 273 272 270 270 268 265 261 263 261
299 300 303 303 299 295 291 290 296 303 306 308 309 311 312 317 320 318 320 321 320 319 317 316 313 308 304 304 303 301 296 294 292 290 290 284 277 273 271 273 273 270 269 267 264 260 260 260 258
291 294 296 299 297 295 291 291 297 299 296 304 308 309 310 312 319 320 323 324 324 325 325 323 317 313 309 309 307 304 302 297 292 290 291 285 276 272 272 274 271 266 267 265 260 259 258 257 257
284 286 290 289 291 289 288 289 289 291 293 300 303 300 300 306 314 318 323 323 322 324 324 323 319 317 312 310 308 304 303 302 295 288 286 284 277 270 273 275 276 275 271 268 264 261 261 258 257
280 280 279 281 283 283 284 285 288 289 292 293 295 297 297 300 308 313 316 318 318 320 321 320 320 317 315 310 307 306 303 302 297 288 285 282 280 276 272 274 278 277 275 270 266 265 264 262 261
281 280 278 277 279 284 287 284 286 285 287 286 287 292 292 294 298 301 305 311 312 314 315 316 316 314 311 312 311 310 308 306 300 292 285 284 280 272 271 278 282 282 280 276 270 266 264 265 265
283 282 276 273 274 277 281 279 281 280 283 284 284 284 284 285 287 290 294 301 302 305 307 310 312 314 310 309 309 305 305 308 296 291 288 286 282 276 275 278 280 281 281 277 270 267 267 267 268
284 284 280 277 275 276 277 274 277 281 283 284 283 280 279 278 279 282 285 294 296 298 302 304 305 306 306 305 304 299 301 304 297 290 287 286 282 278 277 280 281 277 275 274 274 272 271 269 271
283 283 283 280 278 278 278 276 276 278 280 281 281 277 276 273 274 278 281 290 298 295 297 298 302 304 303 302 301 295 297 298 292 288 287 283 283 279 279 282 285 282 278 275 273 271 269 268 269
282 283 282 279 278 279 279 276 276 278 279 279 276 275 273 272 273 276 279 285 292 293 294 295 295 297 298 297 297 294 291 289 289 290 288 281 279 278 277 282 286 286 284 276 269 269 266 268 267
283 284 282 280 278 276 279 276 276 278 278 278 274 271 271 271 271 275 278 282 287 289 288 290 292 291 292 295 295 292 289 290 286 288 284 277 273 273 274 278 283 281 278 277 279 275 271 272 273
282 281 281 282 280 281 280 279 279 278 277 278 276 272 270 269 270 273 275 279 281 283 285 283 286 287 287 289 291 289 288 285 283 285 282 273 270 270 275 279 281 277 271 275 280 281 277 273 274
282 282 282 283 283 282 282 282 279 278 278 278 276 273 270 270 271 272 272 275 277 279 282 283 282 284 284 282 283 283 283 282 280 278 273 269 271 271 274 276 275 273 270 270 273 282 283 278 275
282 285 285 285 284 284 284 283 281 279 280 278 273 273 274 271 273 274 272 275 274 275 278 278 279 280 280 278 279 279 281 280 277 277 273 269 270 271 274 275 273 273 272 271 274 280 280 281 280
282 284 285 287 287 284 284 284 283 282 282 279 274 272 273 274 275 273 272 273 273 273 275 277 277 278 277 274 274 275 277 275 271 271 272 269 269 270 272 273 270 271 271 270 273 275 277 279 280
279 280 285 286 285 286 286 285 283 283 283 281 278 276 273 273 275 274 271 271 272 273 274 275 275 275 275 273 271 271 272 271 270 271 271 271 272 273 271 270 270 270 270 270 271 272 273 275 277
277 279 282 285 287 288 289 288 286 286 284 283 281 279 276 275 273 272 272 271 269 270 272 272 273 273 272 272 271 271 270 271 269 270 270 272 272 273 273 271 270 270 271 270 270 272 273 274 275
278 279 282 284 284 288 289 290 289 287 283 282 281 279 277 275 273 272 271 270 268 268 271 271 269 270 270 270 271 270 270 270 268 269 268 269 270 270 271 271 269 270 271 270 270 271 272 273 273
278 280 282 284 285 287 290 292 290 287 285 282 279 278 277 274 273 272 270 270 267 266 268 269 268 267 267 269 270 271 270 268 267 268 268 269 269 268 268 268 268 269 270 269 269 268 270 271 273
Height
5862 5862 5863 5864 5865 5864 5864 5864 5864 5864 5864 5864 5863 5863 5863 5863 5864 5866 5863 5862 5861 5861 5861 5861 5860 5859 5859 5859 5858 5858 5858 5858 5857 5857 5857 5857 5857 5857 5857 5857 5856 5856 5855 5856 5856 5857 5857 5858 5859
5862 5862 5864 5864 5864 5863 5864 5864 5863 5863 5863 5863 5863 5863 5863 5863 5863 5862 5862 5861 5861 5861 5860 5860 5859 5859 5858 5858 5858 5857 5857 5857 5857 5856 5856 5856 5856 5856 5856 5856 5856 5855 5855 5854 5854 5854 5854 5855 5857
5862 5862 5864 5863 5863 5863 5864 5863 5863 5863 5863 5863 5862 5862 5862 5862 5862 5862 5861 5861 5860 5860 5860 5859 5859 5858 5858 5857 5857 5856 5856 5856 5856 5855 5855 5855 5855 5855 5855 5855 5855 5854 5854 5853 5852 5850 5847 5849 5853
5862 5863 5863 5863 5862 5863 5863 5863 5863 5862 5862 5862 5862 5862 5861 5862 5861 5861 5861 5860 5860 5860 5859 5858 5858 5857 5857 5856 5856 5855 5855 5855 5855 5854 5854 5854 5854 5854 5854 5854 5854 5853 5853 5852 5850 5847 5843 5845 5851
5862 5862 5862 5862 5862 5862 5862 5862 5862 5862 5862 5862 5862 5861 5861 5861 5860 5860 5860 5859 5859 5859 5858 5858 5857 5856 5856 5855 5855 5854 5854 5854 5853 5853 5853 5853 5853 5853 5853 5853 5852 5852 5851 5851 5850 5848 5846 5848 5851
5862 5862 5862 5862 5862 5862 5862 5862 5861 5861 5861 5861 5861 5860 5860 5860 5860 5859 5859 5858 5858 5858 5857 5857 5856 5855 5855 5854 5854 5853 5853 5853 5852 5852 5852 5851 5851 5851 5851 5851 5851 5851 5850 5850 5849 5848 5848 5849 5851
5862 5861 5861 5861 5861 5861 5862 5861 5861 5861 5860 5860 5860 5860 5859 5859 5859 5858 5858 5857 5857 5856 5856 5855 5855 5854 5854 5853 5853 5852 5852 5851 5851 5851 5850 5850 5850 5850 5849 5849 5849 5849 5849 5848 5848 5848 5849 5849 5850
5861 5861 5860 5861 5861 5861 5861 5860 5860 5860 5860 5859 5859 5859 5859 5858 5858 5857 5857 5856 5856 5855 5855 5854 5854 5853 5853 5852 5851 5851 5850 5850 5850 5849 5849 5848 5848 5848 5847 5847 5847 5847 5847 5847 5847 5847 5847 5848 5848
5860 5861 5860 5860 5860 5860 5859 5859 5859 5859 5859 5858 5858 5858 5858 5857 5856 5856 5856 5855 5855 5854 5853 5853 5852 5852 5851 5851 5850 5849 5849 5848 5848 5847 5847 5847 5846 5846 5845 5845 5845 5845 5845 5845 5845 5845 5846 5846 5847
5859 5860 5859 5859 5859 5859 5858 5858 5858 5858 5858 5857 5857 5857 5856 5856 5855 5855 5854 5854 5853 5853 5852 5851 5851 5850 5850 5849 5848 5848 5847 5847 5846 5846 5845 5845 5844 5844 5843 5843 5843 5843 5843 5843 5844 5844 5844 5845 5845
5858 5858 5858 5858 5858 5858 5857 5857 5857 5857 5857 5857 5856 5856 5855 5855 5854 5854 5853 5853 5852 5851 5851 5850 5849 5849 5848 5847 5847 5846 5846 5845 5844 5844 5843 5843 5842 5842 5842 5841 5841 5841 5841 5842 5842 5842 5843 5843 5843
5858 5857 5857 5857 5857 5857 5857 5857 5857 5856 5856 5856 5855 5855 5854 5854 5853 5853 5852 5851 5851 5850 5849 5848 5848 5847 5846 5846 5845 5845 5844 5843 5843 5842 5841 5841 5840 5840 5840 5839 5839 5839 5840 5840 5840 5840 5841 5841 5841
5857 5857 5857 5856 5856 5856 5856 5856 5856 5856 5855 5855 5854 5854 5854 5853 5853 5852 5851 5850 5849 5849 5848 5847 5846 5846 5845 5844 5843 5843 5842 5841 5841 5840 5839 5839 5838 5838 5838 5838 5837 5837 5838 5838 5838 5838 5839 5839 5839
5857 5856 5856 5856 5855 5855 5855 5855 5855 5855 5854 5854 5853 5853 5853 5852 5852 5851 5850 5849 5849 5848 5847 5846 5845 5844 5844 5843 5842 5841 5840 5839 5839 5838 5838 5837 5837 5836 5836 5836 5836 5836 5836 5836 5836 5836 5836 5837 5837
5856 5856 5855 5855 5855 5855 5855 5855 5854 5853 5853 5853 5852 5852 5851 5851 5851 5850 5849 5848 5848 5847 5846 5845 5844 5843 5842 5841 5841 5840 5839 5838 5837 5837 5836 5836 5835 5835 5835 5835 5834 5834 5834 5834 5834 5834 5834 5834 5835
5855 5855 5855 5854 5854 5854 5855 5854 5853 5852 5852 5852 5851 5851 5850 5850 5849 5849 5848 5847 5847 5846 5845 5844 5843 5842 5841 5840 5839 5838 5837 5836 5836 5835 5835 5834 5834 5833 5833 5833 5833 5832 5832 5832 5832 5832 5832 5832 5833
5853 5853 5853 5853 5852 5852 5853 5853 5852 5851 5851 5850 5850 5850 5849 5848 5848 5847 5847 5846 5845 5845 5844 5843 5842 5841 5839 5839 5838 5837 5836 5835 5834 5834 5833 5833 5832 5832 5832 5831 5831 5831 5830 5830 5830 5830 5830 5830 5830
5852 5852 5851 5851 5851 5851 5851 5851 5851 5850 5849 5849 5849 5848 5848 5847 5846 5846 5845 5845 5844 5843 5842 5841 5840 5839 5838 5837 5836 5836 5835 5834 5833 5833 5832 5831 5830 5830 5830 5830 5829 5829 5829 5828 5828 5828 5828 5828 5828
5850 5850 5850 5850 5849 5849 5849 5849 5849 5848 5848 5847 5847 5846 5846 5845 5845 5844 5843 5843 5842 5841 5840 5839 5838 5838 5837 5836 5835 5834 5833 5832 5832 5831 5830 5830 5829 5828 5828 5828 5828 5827 5827 5827 5827 5826 5826 5827 5827
5848 5848 5848 5848 5847 5847 5847 5847 5847 5846 5846 5845 5844 5844 5843 5843 5843 5842 5842 5841 5840 5839 5838 5838 5837 5836 5835 5834 5833 5832 5832 5831 5830 5829 5829 5828 5827 5827 5826 5826 5826 5826 5825 5825 5825 5825 5825 5825 5825
5846 5846 5846 5845 5845 5845 5845 5845 5845 5845 5844 5843 5842 5841 5841 5841 5840 5840 5839 5838 5838 5837 5836 5836 5835 5834 5833 5833 5832 5831 5830 5829 5828 5828 5827 5826 5825 5825 5825 5824 5824 5824 5824 5823 5823 5823 5823 5823 5823
5843 5843 5843 5842 5842 5842 5843 5842 5843 5842 5841 5840 5840 5839 5838 5838 5838 5837 5837 5836 5836 5835 5834 5833 5833 5832 5831 5831 5830 5829 5828 5827 5826 5826 5825 5824 5824 5823 5823 5823 5823 5822 5822 5822 5822 5821 5821 5821 5821
5841 5840 5840 5839 5839 5839 5839 5839 5840 5839 5838 5838 5837 5836 5836 5835 5835 5835 5834 5834 5833 5832 5831 5831 5830 5830 5829 5828 5828 5827 5826 5826 5825 5824 5823 5822 5822 5822 5822 5821 5821 5821 5821 5820 5820 5820 5819 5819 5819
5837 5837 5837 5836 5836 5836 5836 5836 5836 5835 5835 5834 5833 5833 5832 5832 5832 5831 5831 5831 5830 5829 5829 5828 5827 5827 5826 5826 5825 5825 5824 5824 5823 5822 5821 5821 5820 5820 5820 5819 5819 5819 5819 5818 5818 5818 5817 5817 5817
5834 5835 5834 5833 5832 5833 5832 5832 5833 5831 5831 5830 5830 5829 5829 5829 5828 5828 5828 5827 5827 5826 5825 5825 5825 5824 5823 5823 5823 5822 5821 5821 5820 5820 5819 5819 5818 5818 5818 5817 5817 5817 5816 5816 5816 5816 5815 5815 5814
5831 5831 5831 5830 5829 5829 5828 5828 5829 5827 5826 5826 5825 5825 5825 5825 5824 5824 5824 5823 5823 5822 5822 5821 5821 5820 5820 5820 5819 5819 5818 5818 5818 5817 5817 5817 5816 5816 5815 5815 5815 5814 5814 5814 5813 5813 5813 5812 5812
5828 5827 5827 5826 5825 5825 5824 5825 5824 5823 5822 5822 5821 5820 5820 5820 5820 5819 5819 5818 5818 5818 5818 5817 5817 5817 5816 5816 5815 5815 5815 5815 5814 5814 5814 5814 5813 5813 5813 5812 5812 5811 5811 5811 5810 5810 5810 5810 5809
5824 5823 5823 5821 5820 5819 5820 5820 5820 5818 5818 5817 5816 5815 5815 5815 5815 5814 5814 5813 5813 5813 5813 5813 5813 5812 5812 5811 5811 5811 5811 5811 5810 5811 5810 5810 5810 5810 5809 5809 5809 5808 5808 5807 5807 5807 5807 5807 5806
5820 5819 5817 5817 5816 5815 5814 5818 5815 5813 5812 5811 5811 5810 5809 5809 5809 5809 5809 5808 5808 5808 5808 5808 5808 5807 5807 5807 5806 5806 5806 5806 5806 5806 5806 5806 5806 5806 5805 5805 5805 5805 5804 5804 5804 5803 5803 5803 5803
5815 5814 5813 5812 5811 5810 5809 5813 5810 5808 5806 5805 5805 5804 5804 5803 5803 5803 5803 5802 5802 5802 5802 5802 5802 5802 5802 5802 5801 5801 5801 5801 5801 5801 5801 5801 5801 5801 5801 5801 5801 5800 5800 5800 5800 5800 5800 5800 5799